Temp
63 62 62 62 62 63 63 62 62 62 62 62 62 62 62 62 61 65 71 81 79 78 80 83 84 84 84 79 79 77 67 64 66 68 70 77 74 78 81 77 79 78 79 81 80
62 62 62 62 62 62 62 62 62 62 61 61 61 61 62 62 62 67 80 78 78 80 83 83 80 82 80 77 78 68 64 66 66 70 73 77 75 73 74 76 72 74 78 79 79
62 62 61 62 62 62 62 62 62 62 62 61 61 62 62 63 67 79 81 78 79 81 86 86 85 82 76 78 76 71 64 67 67 72 77 77 76 78 73 72 74 74 75 77 78
61 61 61 61 62 61 61 61 61 61 61 61 61 62 62 62 68 81 80 78 79 82 85 84 81 77 74 71 75 69 70 70 68 72 74 73 76 76 75 78 81 80 79 78 77
61 61 61 61 61 61 61 61 60 60 60 61 62 62 64 70 75 83 80 80 81 82 83 81 79 77 72 73 74 70 69 69 69 71 74 75 74 75 76 78 81 80 79 78 79
60 60 60 60 60 61 61 59 59 59 60 61 62 62 66 71 83 81 80 82 83 83 82 83 80 79 76 74 71 70 69 67 68 69 74 71 74 79 77 78 78 78 78 79 79
60 60 60 60 60 59 58 58 57 58 60 61 62 65 68 75 82 82 83 81 82 83 81 83 84 80 79 72 75 72 65 67 65 65 68 72 70 72 78 80 77 78 78 79 80
60 60 59 58 58 58 58 56 57 59 60 61 63 64 72 81 82 81 83 80 81 84 83 85 85 82 78 78 73 68 67 61 62 63 66 70 65 74 79 78 76 77 78 78 80
59 59 58 58 58 57 56 56 60 60 62 63 64 66 74 78 79 81 85 80 79 81 83 87 83 78 76 72 67 66 58 59 58 63 62 67 65 70 77 78 76 77 78 79 79
59 59 58 58 57 56 55 58 62 63 65 66 68 69 79 77 81 79 83 83 80 80 80 79 75 74 73 72 62 62 58 59 57 59 61 63 63 69 75 72 74 77 78 79 79
59 58 58 58 57 55 58 65 72 71 68 71 73 72 76 83 85 79 83 83 81 78 71 72 71 67 72 74 71 70 62 60 59 61 59 59 63 68 73 74 75 77 77 78 80
58 58 58 57 56 55 58 75 73 74 68 72 71 72 77 79 77 79 85 77 74 69 72 70 66 73 73 72 70 68 62 59 61 62 60 58 61 66 70 71 74 76 77 79 81
58 58 57 56 55 59 68 74 75 76 70 73 75 75 79 80 77 78 82 77 73 69 70 67 70 73 72 70 67 67 65 59 60 61 62 59 57 60 63 67 72 77 80 82 81
58 57 56 54 61 66 75 74 74 72 68 70 75 79 79 81 76 83 85 81 74 69 70 70 73 72 71 69 70 63 69 65 60 60 54 60 50 56 60 64 68 74 77 81 82
57 56 55 53 70 75 74 73 72 74 52 74 76 86 80 78 78 78 85 81 72 71 72 68 70 68 67 70 70 64 70 66 64 61 59 56 53 59 61 62 68 72 75 80 83
56 55 55 57 61 72 72 73 75 66 51 68 75 74 74 75 76 78 79 83 79 73 71 72 75 74 73 72 74 71 67 65 63 60 52 61 58 59 60 66 69 72 76 77 82
54 52 54 62 77 71 72 77 65 57 68 66 68 72 70 69 72 74 72 71 69 63 63 68 69 71 74 68 71 68 64 54 52 52 54 59 56 63 68 72 75 73 73 77 80
52 52 56 63 67 69 77 71 56 63 64 71 68 70 68 69 69 70 70 68 70 69 66 62 59 67 72 70 67 67 68 59 48 50 56 60 56 67 73 74 78 80 75 80 80
52 62 67 72 66 67 75 63 62 65 69 68 69 66 66 68 68 69 67 68 70 71 64 62 62 70 72 72 73 64 62 68 61 62 59 61 65 70 72 71 74 77 74 76 78
65 71 74 72 71 76 71 55 64 68 71 70 63 64 62 65 65 67 65 71 70 72 72 66 60 69 70 73 70 68 70 59 62 51 48 59 59 63 62 63 69 71 73 76 79
69 75 74 73 74 74 65 64 66 73 72 70 66 65 64 63 64 64 64 71 72 72 72 70 64 64 69 67 66 64 64 62 64 61 56 56 58 63 61 62 68 71 77 81 78
68 71 76 76 71 61 67 65 61 73 75 73 71 68 65 63 64 64 64 68 73 73 69 68 67 63 63 70 70 70 69 68 62 57 63 61 61 66 64 66 68 70 74 79 81
65 66 75 77 66 66 66 68 71 72 71 71 69 69 67 64 62 64 66 73 72 72 69 70 63 58 61 68 70 67 68 66 65 65 61 60 63 68 67 66 67 67 72 76 72
64 67 71 69 65 67 63 66 68 72 70 70 68 69 67 65 65 63 66 71 72 70 66 70 65 61 58 61 66 63 65 65 66 62 64 65 63 64 64 63 65 67 70 74 74
62 64 63 65 65 65 63 64 67 67 71 71 68 68 67 62 63 63 66 69 71 67 68 70 61 62 65 65 64 63 63 64 62 62 60 64 62 63 63 63 63 66 67 67 71
61 61 64 63 60 63 57 65 67 69 70 68 68 68 67 63 64 62 65 65 65 70 67 67 62 61 61 65 66 62 65 65 62 61 61 62 60 66 63 64 62 61 60 60 61
60 61 61 57 61 63 64 64 66 70 70 72 72 68 65 68 69 66 67 63 64 64 63 63 64 61 57 60 63 58 64 65 63 62 63 57 63 65 61 59 58 59 59 59 60
MSLP
1017.79 1017.55 1017.28 1017.02 1016.70 1016.44 1016.21 1016.00 1015.85 1015.66 1015.43 1015.18 1014.96 1014.80 1014.60 1014.35 1013.81 1013.45 1012.11 1010.63 1010.51 1010.34 1010.56 1010.58 1010.51 1010.37 1010.28 1010.36 1010.67 1010.90 1011.03 1011.19 1011.44 1011.27 1011.22 1011.40 1011.60 1012.14 1012.27 1012.67 1013.08 1013.58 1013.85 1014.52 1015.66
1017.73 1017.47 1017.23 1016.96 1016.63 1016.38 1016.14 1015.87 1015.65 1015.46 1015.33 1015.10 1014.87 1014.69 1014.49 1014.26 1013.70 1012.26 1010.31 1010.32 1010.41 1010.42 1010.40 1010.27 1010.29 1010.26 1010.17 1010.39 1010.60 1010.91 1011.40 1011.90 1012.36 1011.88 1011.41 1011.40 1011.76 1012.21 1012.50 1012.72 1013.53 1014.04 1014.64 1015.30 1015.89
1017.72 1017.44 1017.14 1016.84 1016.54 1016.26 1016.03 1015.77 1015.54 1015.32 1015.12 1015.05 1014.78 1014.55 1014.36 1014.13 1012.99 1010.54 1009.92 1010.28 1010.43 1010.50 1010.35 1010.23 1010.22 1010.20 1010.22 1010.51 1010.81 1011.18 1011.88 1012.50 1012.81 1012.38 1011.85 1011.75 1011.96 1012.24 1012.72 1012.80 1013.19 1013.61 1014.60 1015.35 1015.88
1017.60 1017.30 1016.98 1016.68 1016.43 1016.12 1015.84 1015.66 1015.45 1015.22 1014.99 1014.88 1014.65 1014.39 1014.13 1013.84 1012.08 1010.26 1010.08 1010.36 1010.53 1010.60 1010.46 1010.26 1010.28 1010.16 1010.30 1010.62 1011.10 1011.40 1012.37 1012.74 1013.10 1013.01 1012.28 1012.36 1012.36 1012.47 1012.67 1012.48 1013.09 1013.99 1014.51 1015.22 1015.82
1017.56 1017.22 1016.87 1016.59 1016.28 1016.00 1015.67 1015.46 1015.31 1015.09 1014.90 1014.70 1014.50 1014.24 1013.93 1012.80 1011.02 1010.28 1010.06 1010.53 1010.77 1010.74 1010.44 1010.30 1010.22 1010.26 1010.37 1010.84 1011.17 1011.65 1012.72 1013.23 1013.44 1013.46 1012.90 1012.90 1012.60 1012.36 1012.63 1012.92 1013.58 1014.33 1015.02 1015.32 1015.78
1017.45 1017.09 1016.76 1016.49 1016.14 1015.82 1015.52 1015.33 1015.14 1014.91 1014.73 1014.56 1014.39 1014.19 1013.43 1011.74 1010.62 1010.58 1010.49 1010.67 1010.73 1010.70 1010.56 1010.32 1010.32 1010.54 1010.56 1010.93 1011.44 1012.37 1013.05 1013.64 1014.00 1013.93 1013.52 1013.11 1012.70 1012.35 1012.98 1013.28 1014.05 1014.43 1014.89 1015.29 1015.70
1017.37 1017.00 1016.69 1016.42 1016.04 1015.69 1015.45 1015.24 1015.00 1014.84 1014.58 1014.42 1014.30 1013.97 1012.82 1011.38 1010.72 1010.77 1010.68 1010.79 1010.92 1010.86 1010.61 1010.58 1010.46 1010.43 1010.71 1011.10 1011.91 1012.56 1013.01 1013.81 1014.44 1014.42 1014.02 1013.76 1012.93 1012.36 1012.88 1013.22 1013.88 1014.39 1014.86 1015.30 1015.66
1017.30 1016.88 1016.54 1016.28 1015.94 1015.53 1015.17 1014.93 1014.60 1014.51 1014.38 1014.30 1014.22 1013.79 1011.80 1010.77 1010.88 1010.93 1010.94 1011.10 1011.13 1010.97 1010.92 1010.84 1010.61 1010.47 1010.66 1011.23 1011.71 1012.34 1013.23 1013.95 1015.00 1014.65 1014.67 1014.18 1012.70 1012.67 1012.95 1013.29 1013.61 1014.30 1014.75 1015.11 1015.42
1017.21 1016.83 1016.44 1016.12 1015.75 1015.32 1014.98 1014.57 1013.96 1014.13 1014.19 1014.19 1014.06 1013.16 1011.08 1010.74 1010.68 1010.65 1010.63 1010.75 1011.11 1011.04 1011.02 1010.83 1010.81 1010.78 1010.98 1010.80 1011.43 1012.30 1013.07 1014.04 1015.21 1015.53 1014.96 1014.44 1013.02 1013.12 1013.09 1013.12 1013.40 1013.98 1014.44 1014.76 1015.30
1017.08 1016.67 1016.24 1015.84 1015.56 1015.26 1014.78 1014.35 1014.00 1014.09 1014.12 1013.85 1013.44 1012.79 1010.61 1010.38 1010.22 1010.62 1010.74 1010.68 1010.69 1010.86 1010.74 1010.84 1011.02 1010.86 1010.95 1010.53 1010.67 1011.60 1012.70 1013.91 1014.75 1015.42 1014.97 1014.41 1013.76 1013.32 1013.33 1013.53 1013.26 1013.62 1014.24 1014.49 1014.80
1016.81 1016.39 1015.97 1015.63 1015.34 1015.22 1014.58 1014.27 1014.19 1013.86 1013.18 1012.67 1012.24 1011.57 1010.55 1010.12 1010.10 1010.40 1010.52 1010.48 1010.58 1010.55 1010.37 1011.02 1010.66 1010.41 1010.34 1010.32 1010.71 1011.14 1012.24 1013.38 1014.64 1015.06 1014.63 1014.76 1014.17 1013.81 1013.87 1013.78 1013.74 1013.66 1014.02 1014.14 1014.26
1016.58 1016.12 1015.69 1015.36 1015.15 1014.96 1014.72 1013.62 1013.51 1013.31 1012.58 1011.76 1011.49 1011.00 1010.35 1010.16 1009.91 1010.22 1010.39 1010.26 1010.41 1010.34 1010.63 1010.95 1010.48 1010.44 1010.61 1010.74 1010.80 1011.22 1011.93 1013.12 1014.28 1014.80 1015.06 1014.82 1014.65 1014.48 1014.18 1013.80 1013.57 1013.50 1013.58 1013.70 1013.95
1016.39 1015.92 1015.47 1015.10 1014.88 1014.67 1013.96 1013.24 1013.01 1012.88 1012.30 1011.18 1010.62 1010.15 1009.82 1009.85 1009.51 1009.66 1009.98 1009.92 1010.06 1010.25 1010.28 1010.33 1010.38 1010.49 1010.50 1010.58 1010.91 1011.13 1011.67 1012.73 1013.56 1014.64 1014.98 1015.04 1014.64 1014.49 1014.60 1014.36 1013.86 1013.40 1013.08 1013.12 1013.46
1016.17 1015.74 1015.32 1014.92 1015.03 1014.23 1013.41 1012.96 1013.05 1013.03 1011.78 1010.91 1009.90 1009.54 1009.72 1009.44 1009.39 1009.38 1009.45 1009.43 1009.76 1010.04 1010.27 1010.24 1010.36 1010.21 1010.29 1010.34 1010.90 1011.06 1011.61 1012.31 1013.30 1013.85 1014.18 1014.59 1014.20 1013.94 1014.03 1014.02 1013.53 1012.99 1012.90 1012.77 1013.03
1015.87 1015.56 1015.23 1015.01 1014.25 1013.84 1013.40 1012.96 1012.92 1012.61 1011.20 1010.43 1009.40 1009.08 1009.22 1009.28 1009.35 1009.29 1009.29 1009.06 1009.27 1009.68 1010.12 1010.00 1010.04 1010.13 1010.11 1010.06 1010.74 1011.28 1011.62 1012.19 1012.92 1013.44 1013.72 1014.18 1014.05 1012.81 1013.08 1012.98 1012.68 1012.45 1012.39 1012.32 1012.46
1015.48 1015.26 1015.08 1014.87 1014.38 1013.30 1013.09 1012.83 1012.75 1011.89 1010.87 1009.96 1009.35 1009.08 1008.96 1009.18 1009.22 1009.30 1009.15 1009.15 1009.52 1009.56 1009.84 1009.72 1010.05 1010.03 1009.98 1010.28 1010.50 1011.48 1011.99 1012.44 1012.76 1013.10 1012.90 1012.51 1012.94 1011.44 1011.54 1010.28 1010.82 1011.63 1011.78 1011.85 1012.03
1015.06 1014.65 1014.86 1014.24 1013.42 1013.01 1012.83 1012.34 1011.95 1011.06 1011.06 1010.20 1009.70 1009.35 1009.27 1009.29 1009.28 1009.23 1009.32 1009.36 1009.42 1009.44 1009.48 1009.64 1009.71 1010.12 1010.26 1010.41 1010.96 1011.21 1011.58 1011.67 1012.00 1012.09 1011.67 1012.02 1012.17 1009.99 1009.78 1009.55 1009.27 1009.65 1010.88 1011.35 1011.76
1014.68 1014.43 1014.31 1013.74 1013.39 1013.11 1012.40 1012.08 1011.43 1011.10 1010.53 1010.33 1010.07 1009.74 1009.51 1009.68 1009.68 1009.58 1009.55 1009.54 1009.65 1009.65 1009.52 1009.43 1009.61 1009.82 1010.04 1009.89 1009.92 1010.62 1010.80 1010.65 1010.68 1010.85 1011.03 1011.35 1010.30 1009.26 1009.12 1008.76 1008.61 1008.93 1009.89 1010.70 1011.29
1014.42 1014.19 1013.76 1013.09 1013.26 1013.24 1012.29 1011.60 1011.36 1010.97 1010.57 1010.22 1010.07 1009.92 1009.93 1010.07 1010.02 1009.77 1009.83 1009.66 1009.68 1009.68 1009.64 1009.57 1009.43 1009.74 1009.84 1010.12 1010.25 1010.78 1010.87 1011.00 1010.64 1010.71 1010.27 1010.04 1009.56 1009.46 1009.22 1009.04 1008.85 1008.88 1009.85 1010.32 1010.56
1014.27 1013.56 1013.18 1012.98 1013.01 1012.56 1011.98 1011.86 1011.49 1011.09 1010.54 1010.30 1010.16 1010.51 1010.26 1010.38 1010.24 1010.00 1010.03 1009.93 1009.78 1009.82 1009.86 1009.95 1009.68 1009.68 1009.86 1010.11 1010.72 1010.34 1010.57 1010.93 1010.53 1009.90 1009.67 1009.42 1009.64 1009.72 1010.04 1010.02 1009.78 1009.64 1009.64 1009.94 1010.56
1013.97 1013.23 1013.16 1013.02 1012.80 1012.17 1012.00 1011.87 1011.33 1010.77 1010.69 1010.30 1010.37 1010.47 1010.72 1010.78 1010.71 1010.52 1010.47 1010.22 1010.21 1010.09 1010.00 1009.96 1010.06 1010.14 1009.88 1009.77 1009.72 1010.52 1010.22 1010.57 1010.46 1009.94 1009.20 1009.26 1010.07 1011.10 1011.28 1011.12 1010.44 1009.93 1009.76 1009.74 1010.35
1014.29 1013.36 1012.89 1012.57 1012.68 1013.04 1012.32 1012.06 1011.43 1010.59 1010.35 1010.29 1010.48 1010.74 1011.01 1011.25 1011.06 1010.82 1010.58 1010.39 1010.44 1010.27 1010.04 1010.31 1010.00 1009.56 1009.82 1009.94 1010.02 1009.64 1009.32 1009.62 1009.64 1009.65 1009.69 1009.86 1010.38 1011.38 1011.80 1011.74 1011.21 1010.64 1010.38 1010.17 1010.24
1015.34 1014.12 1013.01 1012.53 1012.63 1012.70 1012.39 1011.84 1011.24 1010.54 1010.44 1010.38 1010.71 1011.10 1011.52 1011.56 1011.68 1011.27 1010.92 1010.74 1010.54 1010.34 1010.42 1010.35 1010.19 1009.82 1009.72 1009.84 1009.80 1009.57 1009.75 1009.92 1009.84 1009.73 1009.40 1009.67 1010.05 1011.07 1011.91 1012.16 1012.02 1011.60 1011.00 1010.57 1010.61
1016.06 1014.56 1013.39 1013.00 1013.12 1012.66 1012.33 1011.65 1011.02 1010.70 1010.60 1010.69 1010.97 1011.24 1011.54 1011.72 1011.92 1011.64 1011.19 1011.00 1010.87 1010.94 1010.80 1010.70 1010.64 1010.20 1009.95 1009.83 1009.93 1009.78 1009.92 1010.12 1009.84 1009.60 1009.27 1009.48 1010.26 1011.22 1012.02 1012.54 1012.74 1012.62 1012.15 1011.53 1011.32
1016.36 1015.23 1014.68 1013.62 1013.28 1012.78 1012.52 1011.92 1011.08 1010.66 1010.70 1010.82 1011.02 1011.22 1011.45 1011.79 1011.90 1011.80 1011.70 1011.44 1011.32 1011.32 1011.22 1011.03 1010.83 1010.92 1010.48 1010.50 1010.44 1010.14 1010.14 1010.20 1010.21 1010.45 1010.42 1010.20 1010.87 1012.04 1012.82 1013.24 1013.62 1013.76 1013.38 1012.89 1012.54
1016.82 1016.06 1015.21 1014.22 1013.52 1012.87 1012.60 1011.65 1011.00 1010.71 1010.66 1010.65 1010.83 1011.34 1011.72 1011.97 1012.17 1012.15 1012.20 1012.19 1012.00 1011.78 1011.72 1011.74 1011.46 1011.42 1010.90 1010.83 1010.64 1010.50 1010.47 1010.40 1010.69 1011.11 1011.30 1011.55 1011.81 1012.80 1013.69 1014.14 1014.60 1015.01 1014.78 1014.28 1014.28
1017.58 1016.94 1016.08 1014.42 1013.51 1012.69 1011.93 1011.48 1011.00 1010.79 1010.77 1010.59 1010.74 1011.39 1011.96 1012.24 1012.43 1012.92 1012.90 1013.16 1013.02 1012.91 1012.58 1012.45 1012.06 1011.81 1011.35 1011.56 1011.10 1010.89 1010.89 1010.69 1010.92 1011.53 1011.68 1011.96 1012.28 1013.31 1014.34 1015.14 1015.68 1015.72 1015.83 1015.89 1015.96
Wind_Speed
9 9 9 9 9 9 8 8 8 8 9 10 10 11 11 12 12 2 5 3 3 4 7 7 2 3 2 2 1 1 2 5 5 8 7 8 7 4 5 12 5 2 9 12 16
8 9 9 9 9 9 9 9 9 8 9 10 10 11 10 11 3 5 6 4 4 6 6 8 7 4 2 1 1 3 3 4 4 2 7 8 11 5 6 11 5 11 14 16 15
9 9 9 10 10 9 10 9 9 9 9 9 10 10 10 8 3 2 4 8 7 4 2 2 8 1 2 1 2 2 3 6 6 5 6 9 9 4 11 8 6 20 18 16 15
10 10 10 10 11 11 10 10 10 9 9 9 9 9 11 2 4 3 4 8 8 2 2 9 5 2 1 2 2 3 5 4 3 4 5 6 1 11 7 2 12 16 19 17 15
12 11 11 11 11 11 12 11 10 10 9 9 8 8 2 1 3 6 10 10 7 4 4 6 6 1 3 1 3 4 4 6 3 5 8 2 3 5 9 10 17 17 16 16 14
13 13 12 12 13 13 13 13 12 11 8 8 7 7 2 4 4 5 11 7 7 3 3 3 4 0 3 4 3 5 8 8 7 6 6 4 2 8 9 17 17 19 17 16 14
14 13 13 13 13 13 13 13 13 11 7 5 4 3 1 4 3 6 3 4 3 2 3 2 4 3 1 5 5 9 5 6 8 6 5 6 6 9 15 18 19 18 15 14 13
13 14 15 14 14 14 15 16 13 8 4 4 3 2 1 2 3 2 3 4 1 2 2 1 2 4 1 8 4 4 3 4 5 5 4 6 11 7 17 19 19 17 15 14 15
14 15 15 15 14 14 15 16 6 3 3 4 2 2 4 4 2 3 3 4 4 2 1 5 0 3 5 5 4 2 3 4 4 2 4 6 3 1 17 19 18 17 15 14 12
14 14 15 14 14 13 15 7 7 5 3 3 3 2 1 2 3 5 1 8 4 6 6 3 3 2 1 4 2 3 4 2 3 3 2 2 6 4 16 13 17 17 14 13 14
15 14 15 12 12 11 6 2 1 2 1 3 5 3 3 4 3 3 3 4 3 2 4 3 4 5 7 7 2 4 4 6 3 3 4 3 4 10 15 15 15 15 14 15 16
16 16 15 13 11 8 2 3 3 3 4 0 4 6 5 2 4 4 6 3 1 6 6 5 4 4 2 4 4 4 6 5 4 6 1 2 2 5 6 12 14 17 17 17 15
17 17 14 12 12 2 2 2 4 1 1 3 3 3 1 4 3 8 9 4 3 3 4 6 2 3 5 4 6 3 2 2 2 7 2 4 3 4 3 5 8 16 18 18 17
16 16 13 13 3 1 0 3 4 4 2 6 1 2 3 1 3 2 8 2 2 5 3 2 2 5 6 5 5 5 4 9 9 7 1 1 3 6 10 11 9 13 16 18 18
17 14 11 7 1 1 3 7 5 4 3 7 1 1 1 0 3 3 2 2 3 6 4 3 5 5 6 5 8 1 6 9 7 3 3 5 3 2 9 18 17 15 16 18 19
18 11 5 2 1 2 4 1 2 2 3 2 2 2 0 2 1 3 1 3 1 3 1 4 1 3 2 3 7 13 8 6 4 2 3 7 6 4 10 28 23 18 17 17 19
18 12 6 1 1 3 3 1 2 3 2 4 3 3 2 3 3 2 3 3 1 2 1 2 3 2 5 9 10 5 7 2 3 4 1 6 6 9 10 10 26 25 19 18 18
18 3 5 4 2 6 0 1 3 2 2 1 2 1 3 5 3 2 5 2 3 3 3 3 6 9 7 3 7 13 11 4 3 3 2 4 6 2 9 6 19 24 22 20 18
6 1 1 2 1 3 0 3 1 2 2 2 1 4 3 3 2 2 2 1 2 5 3 3 1 4 7 6 8 7 9 3 1 0 4 3 4 5 14 11 1 18 16 19 19
2 1 3 3 3 1 1 0 2 3 3 1 2 1 2 5 0 1 1 2 1 2 4 2 3 2 6 7 5 3 8 5 4 4 2 4 3 4 16 15 7 9 17 18 15
1 2 5 3 3 2 2 1 4 3 3 0 2 2 2 1 2 2 2 2 6 3 2 2 3 4 6 6 7 5 5 2 5 3 2 3 3 5 8 10 9 9 14 16 16
3 2 1 2 1 1 1 2 2 2 2 2 3 2 2 2 2 1 1 1 7 2 3 2 1 1 2 4 4 4 3 8 7 3 1 3 2 4 4 6 9 3 8 13 15
3 2 2 2 1 0 2 3 4 2 1 2 2 3 2 2 0 1 2 3 7 1 2 1 1 2 4 3 3 1 2 2 1 1 8 7 0 5 5 7 8 8 7 5 7
3 2 1 3 1 2 0 2 2 1 2 2 4 2 2 1 2 1 2 2 6 4 5 1 1 3 4 2 1 1 3 2 3 5 5 7 2 1 6 8 9 10 7 1 7
2 1 3 3 3 1 2 1 3 4 2 0 3 1 3 3 1 2 1 3 0 8 2 1 0 2 0 5 1 2 3 5 1 3 5 2 3 1 5 5 8 10 9 9 7
3 2 0 1 2 3 4 4 6 4 6 4 4 5 3 3 4 3 1 1 1 3 3 3 1 1 3 3 7 5 5 5 4 3 2 1 3 2 4 5 7 10 9 11 11
2 1 3 1 3 3 4 2 2 4 2 3 8 5 3 2 3 3 4 5 3 3 3 3 1 1 4 4 6 10 5 2 3 4 3 7 2 5 2 5 7 8 9 9 7
Wind_Direction
353 352 346 343 339 338 336 334 333 329 324 321 320 324 328 330 317 195 240 203 164 210 175 133 128 132 125 101 95 150 89 136 117 160 134 143 118 61 112 137 100 75 144 130 143
348 346 341 337 335 332 330 325 326 330 325 321 321 323 328 335 304 254 248 198 207 162 133 151 147 150 95 73 79 45 62 69 0 54 131 136 128 123 141 148 90 104 108 128 147
345 342 335 332 333 334 330 325 324 322 320 322 320 321 322 322 262 66 0 191 179 175 146 148 142 88 70 24 55 82 85 141 48 69 107 134 133 93 149 181 170 150 143 148 156
344 339 334 332 331 330 330 326 326 321 316 316 318 321 317 260 128 40 24 152 167 135 117 128 138 114 80 44 36 87 87 104 147 21 86 107 123 134 165 261 155 152 152 153 165
340 335 333 330 329 330 328 327 324 321 310 305 314 320 278 211 1 5 118 122 119 133 124 126 135 127 67 8 162 94 125 78 87 50 72 22 138 143 206 124 142 146 156 164 168
334 333 333 333 331 333 331 325 320 315 308 305 311 313 262 91 3 73 121 95 112 104 120 142 124 64 53 67 359 86 98 102 49 33 41 17 138 176 154 143 150 156 167 175 176
331 331 335 335 334 334 326 322 314 306 297 296 302 307 262 73 66 114 85 112 139 87 144 119 111 115 17 120 121 136 79 83 41 24 347 335 186 204 154 160 161 171 175 177 187
335 334 339 340 336 330 325 322 309 288 262 264 276 265 330 150 130 141 126 75 83 100 55 166 124 84 50 126 89 97 79 117 352 135 284 297 211 163 164 167 169 176 179 186 191
335 336 337 338 334 330 326 321 316 176 196 172 234 307 84 149 221 139 176 105 131 103 146 119 336 48 151 138 126 83 110 110 132 16 244 233 212 140 181 180 174 177 186 189 187
332 331 334 332 334 334 325 320 108 137 189 208 237 215 119 40 116 120 148 148 119 127 117 104 78 141 176 197 140 163 150 144 197 161 206 123 287 168 186 186 183 180 188 191 196
333 332 335 332 327 332 327 200 261 159 179 353 318 284 315 347 147 70 170 155 114 133 137 64 187 195 200 219 178 185 157 156 141 233 59 328 308 160 184 195 192 189 189 196 207
332 336 333 329 324 315 239 62 101 30 317 144 264 270 259 269 111 122 169 168 172 123 127 129 198 208 271 215 209 187 157 154 123 150 111 351 236 165 186 194 202 194 192 205 204
333 339 333 329 320 237 5 119 123 350 295 314 236 277 333 188 127 172 183 147 125 129 118 168 118 184 203 199 185 197 95 135 122 142 161 155 289 181 218 257 219 205 203 206 201
334 339 334 322 273 349 345 93 277 221 63 15 26 105 144 219 94 122 194 186 124 130 138 158 191 161 196 232 217 198 133 152 144 167 225 280 251 203 180 220 215 201 206 208 209
333 337 330 325 64 197 50 334 122 227 86 344 41 56 106 162 125 159 210 168 136 138 203 157 177 168 205 220 179 163 152 136 135 141 181 191 276 242 190 221 221 212 208 213 211
332 327 317 205 219 292 317 15 244 234 76 24 351 3 282 53 107 107 203 74 64 156 198 265 108 201 250 151 183 134 127 104 121 156 222 175 215 204 190 213 205 209 213 210 210
333 316 189 292 55 327 290 178 247 60 329 10 0 352 92 36 108 128 163 190 234 241 213 288 174 143 163 112 145 170 178 187 199 214 211 161 199 261 236 239 216 195 202 205 207
335 138 213 250 313 333 188 191 71 11 298 20 359 32 53 359 69 104 136 205 211 212 257 281 190 173 173 228 194 192 210 242 268 208 185 174 240 59 311 282 220 207 197 196 204
324 155 244 335 191 199 185 68 126 206 304 335 141 50 45 44 350 125 37 192 278 202 257 212 211 170 184 146 169 167 210 354 262 154 246 196 245 204 19 21 131 200 186 197 202
331 2 36 2 150 232 79 155 247 235 311 138 88 279 21 5 206 107 54 33 305 271 229 113 263 38 138 135 51 231 137 187 221 208 55 273 277 333 351 341 326 195 198 205 205
311 119 8 320 251 43 77 271 275 235 241 47 136 117 74 34 30 55 40 71 14 327 226 149 242 101 174 208 175 154 176 161 284 272 289 255 116 3 323 323 318 241 220 215 207
341 149 55 299 15 45 102 235 331 311 57 100 93 71 56 46 52 106 103 326 347 284 313 18 107 46 26 307 262 280 267 187 246 188 285 313 106 30 357 351 342 335 223 223 222
7 310 48 283 187 166 291 271 269 259 32 115 102 36 43 56 327 343 334 19 17 47 350 173 336 132 136 160 157 106 103 108 14 119 259 278 252 32 48 45 28 4 343 227 196
301 217 110 70 30 147 206 234 208 120 103 68 111 147 146 101 70 286 337 332 359 38 38 169 93 310 296 51 54 161 58 77 231 246 270 254 222 298 32 30 28 22 16 339 184
15 30 355 159 165 136 209 284 201 192 92 197 117 200 168 189 216 240 275 311 93 357 86 355 75 303 295 249 293 114 96 56 309 322 258 357 164 69 8 23 23 27 36 56 65
340 335 0 239 221 199 173 195 214 184 183 187 179 160 167 199 218 249 253 231 350 12 33 10 120 347 292 313 230 167 137 107 92 103 80 232 217 142 3 4 30 37 32 42 27
11 243 276 132 203 196 189 199 244 176 201 233 161 145 200 235 150 86 86 73 36 328 18 2 158 233 274 333 240 252 217 207 126 160 206 209 210 148 59 21 0 30 28 33 29